Orbital Elements at Epoch 2459200.5 (2020-Dec-17.0) TDB
Reference: JPL 9 (heliocentric ecliptic J2000)
Element | Value | Uncertainty (1-sigma) | Units |
e | .2844317604026691 | 3.0427e-05 | |
a | 1.457386467744921 | 6.9648e-05 | au |
q | 1.042859469137205 | 5.5172e-06 | au |
i | 8.211280211545636 | 0.00075633 | deg |
node | 312.4489877227775 | 0.00056807 | deg |
peri | 228.1300509320189 | 0.00022934 | deg |
M | 302.8107982539307 | 0.0039479 | deg |
tp | 2459302.587380386093 (2021-Mar-29.08738039) | 0.00030044 | TDB |
period | 642.6293044301726 1.76 | 0.046067 0.0001261 | d yr |
n | .5601985429519378 | 4.0158e-05 | deg/d |
Q | 1.871913466352636 | 8.9458e-05 | au |
|
| | Orbit Determination Parameters
Additional Information
|